When you browse on this site, cookies collect data to enhance your experience and personalize the content and advertising you see.
Visit our Privacy Policy to learn more. By continuing to use the site, you agree to this use of cookies and data.
  • In Österreich
  • Länderverzeichnis
  • Für 7 Tage
  • Wassertemperatur
  • Satellitenkarten
  • Wetterkarte
  • News
  • Widgets
  • user-avatar
    Anmelden

    Stündliche Wetter Corvallis

    Heute, 24 April, Mittwoch

    Zeit Temperatur Niederschläge Wind Luftdruck Luftfeuchtigkeit
    00:00 +7°C° 0 mm 2 m/S 762 mmHg 92%
    01:00 +7°C° 0 mm 2 m/S 762 mmHg 91%
    02:00 +6°C° 0 mm 2 m/S 762 mmHg 92%
    03:00 +5°C° 0 mm 2 m/S 762 mmHg 94%
    04:00 +4°C° 0 mm 2 m/S 762 mmHg 95%
    05:00 +5°C° 0 mm 2 m/S 762 mmHg 91%
    06:00 +5°C° 0 mm 2 m/S 762 mmHg 88%
    07:00 +6°C° 0 mm 2 m/S 762 mmHg 84%
    08:00 +8°C° 0 mm 2 m/S 762 mmHg 75%
    09:00 +10°C° 0 mm 3 m/S 762 mmHg 67%
    10:00 +13°C° 0 mm 3 m/S 761 mmHg 59%
    11:00 +14°C° 0 mm 3 m/S 761 mmHg 56%
    12:00 +16°C° 0 mm 3 m/S 760 mmHg 52%
    13:00 +18°C° 0 mm 4 m/S 760 mmHg 49%
    14:00 +18°C° 0 mm 4 m/S 759 mmHg 50%
    15:00 +19°C° 0 mm 3 m/S 759 mmHg 51%
    16:00 +19°C° 0 mm 3 m/S 758 mmHg 53%
    17:00 +17°C° 0 mm 3 m/S 758 mmHg 59%
    18:00 +15°C° 0 mm 2 m/S 758 mmHg 66%
    19:00 +13°C° 0 mm 2 m/S 758 mmHg 73%
    20:00 +12°C° 0 mm 2 m/S 758 mmHg 76%
    21:00 +10°C° 0 mm 2 m/S 758 mmHg 79%
    22:00 +9°C° 0 mm 1 m/S 759 mmHg 82%
    23:00 +9°C° 0 mm 1 m/S 758 mmHg 83%

    Morgen, 25 April, Donnerstag

    Zeit Temperatur Niederschläge Wind Luftdruck Luftfeuchtigkeit
    00:00 +8°C° 0 mm 1 m/S 758 mmHg 84%
    01:00 +7°C° 0 mm 1 m/S 758 mmHg 85%
    02:00 +7°C° 0 mm 1 m/S 758 mmHg 85%
    03:00 +7°C° 0 mm 1 m/S 758 mmHg 84%
    04:00 +6°C° 0 mm 1 m/S 757 mmHg 84%
    05:00 +7°C° 0 mm 1 m/S 757 mmHg 79%
    06:00 +9°C° 0 mm 1 m/S 757 mmHg 75%
    07:00 +10°C° 0 mm 1 m/S 757 mmHg 70%
    08:00 +12°C° 0 mm 1 m/S 757 mmHg 63%
    09:00 +15°C° 0 mm 1 m/S 757 mmHg 57%
    10:00 +18°C° 0 mm 1 m/S 757 mmHg 51%
    11:00 +20°C° 0 mm 1 m/S 756 mmHg 48%
    12:00 +21°C° 0 mm 1 m/S 756 mmHg 45%
    13:00 +23°C° 0 mm 1 m/S 756 mmHg 42%
    14:00 +23°C° 0 mm 1 m/S 756 mmHg 43%
    15:00 +23°C° 0 mm 1 m/S 756 mmHg 45%
    16:00 +23°C° 0 mm 1 m/S 755 mmHg 46%
    17:00 +19°C° 0 mm 2 m/S 756 mmHg 52%
    18:00 +16°C° 0 mm 2 m/S 756 mmHg 58%
    19:00 +14°C° 0 mm 2 m/S 757 mmHg 65%
    20:00 +12°C° 0 mm 2 m/S 757 mmHg 71%
    21:00 +9°C° 0 mm 2 m/S 758 mmHg 76%
    22:00 +8°C° 0 mm 1 m/S 758 mmHg 82%
    23:00 +8°C° 0 mm 1 m/S 758 mmHg 84%

    übermorgen, 26 April, Freitag

    Zeit Temperatur Niederschläge Wind Luftdruck Luftfeuchtigkeit
    00:00 +8°C° 0 mm 1 m/S 758 mmHg 87%
    01:00 +7°C° 0 mm 1 m/S 759 mmHg 89%
    02:00 +8°C° 0 mm 1 m/S 759 mmHg 90%
    03:00 +8°C° 0 mm 1 m/S 759 mmHg 91%
    04:00 +8°C° 0 mm 1 m/S 760 mmHg 91%
    05:00 +8°C° 0 mm 1 m/S 760 mmHg 90%
    06:00 +9°C° 0 mm 1 m/S 760 mmHg 89%
    07:00 +9°C° 0 mm 1 m/S 761 mmHg 87%
    08:00 +12°C° 0 mm 1 m/S 761 mmHg 76%
    09:00 +14°C° 0 mm 1 m/S 761 mmHg 64%
    10:00 +16°C° 0 mm 1 m/S 762 mmHg 53%
    11:00 +18°C° 0 mm 1 m/S 762 mmHg 49%
    12:00 +19°C° 0 mm 1 m/S 762 mmHg 46%
    13:00 +18°C° 0 mm 2 m/S 762 mmHg 42%
    14:00 +18°C° 0 mm 2 m/S 762 mmHg 44%
    15:00 +18°C° 0 mm 2 m/S 762 mmHg 46%
    16:00 +18°C° 0 mm 2 m/S 761 mmHg 47%
    17:00 +16°C° 0 mm 2 m/S 762 mmHg 55%
    18:00 +14°C° 0 mm 2 m/S 762 mmHg 63%
    19:00 +10°C° 0 mm 2 m/S 762 mmHg 71%
    20:00 +9°C° 0 mm 2 m/S 763 mmHg 77%
    21:00 +7°C° 0 mm 2 m/S 763 mmHg 83%
    22:00 +6°C° 0 mm 2 m/S 764 mmHg 89%
    23:00 +5°C° 0 mm 2 m/S 764 mmHg 91%

    27 April, Samstag

    Zeit Temperatur Niederschläge Wind Luftdruck Luftfeuchtigkeit
    00:00 +6°C° 0 mm 1 m/S 763 mmHg 92%
    01:00 +5°C° 0 mm 1 m/S 763 mmHg 94%
    02:00 +5°C° 0 mm 1 m/S 763 mmHg 94%
    03:00 +4°C° 0 mm 1 m/S 763 mmHg 95%
    04:00 +4°C° 0 mm 1 m/S 763 mmHg 95%
    05:00 +5°C° 0 mm 1 m/S 763 mmHg 91%
    06:00 +5°C° 0 mm 2 m/S 763 mmHg 87%
    07:00 +6°C° 0 mm 2 m/S 763 mmHg 84%
    08:00 +8°C° 0 mm 2 m/S 762 mmHg 77%
    09:00 +10°C° 0 mm 3 m/S 762 mmHg 70%
    10:00 +12°C° 0 mm 3 m/S 761 mmHg 64%
    11:00 +14°C° 0 mm 3 m/S 761 mmHg 61%
    12:00 +15°C° 0 mm 4 m/S 760 mmHg 59%
    13:00 +17°C° 0 mm 4 m/S 760 mmHg 57%
    14:00 +17°C° 0 mm 4 m/S 760 mmHg 58%
    15:00 +17°C° 0 mm 4 m/S 759 mmHg 59%
    16:00 +17°C° 0 mm 4 m/S 759 mmHg 60%
    17:00 +14°C° 0 mm 4 m/S 759 mmHg 62%
    18:00 +12°C° 0 mm 3 m/S 759 mmHg 64%
    19:00 +10°C° 0 mm 3 m/S 760 mmHg 66%
    20:00 +8°C° 0 mm 3 m/S 760 mmHg 67%
    21:00 +7°C° 0 mm 2 m/S 760 mmHg 68%
    22:00 +5°C° 0 mm 2 m/S 760 mmHg 69%
    23:00 +4°C° 0 mm 2 m/S 760 mmHg 73%

    28 April, Sonntag

    Zeit Temperatur Niederschläge Wind Luftdruck Luftfeuchtigkeit
    00:00 +3°C° 0 mm 2 m/S 760 mmHg 78%
    01:00 +2°C° 0 mm 2 m/S 759 mmHg 83%
    02:00 +2°C° 0 mm 2 m/S 759 mmHg 86%
    03:00 +3°C° 0 mm 1 m/S 759 mmHg 88%
    04:00 +2°C° 0 mm 1 m/S 759 mmHg 91%
    05:00 +4°C° 0 mm 1 m/S 759 mmHg 86%
    06:00 +5°C° 0 mm 1 m/S 758 mmHg 81%
    07:00 +6°C° 0 mm 1 m/S 758 mmHg 75%
    08:00 +7°C° 0 mm 2 m/S 758 mmHg 71%
    09:00 +9°C° 0 mm 3 m/S 757 mmHg 66%
    10:00 +11°C° 0 mm 4 m/S 757 mmHg 61%
    11:00 +12°C° 0 mm 4 m/S 757 mmHg 58%
    12:00 +14°C° 0 mm 4 m/S 756 mmHg 54%
    13:00 +15°C° 0 mm 5 m/S 756 mmHg 51%
    14:00 +16°C° 0 mm 5 m/S 756 mmHg 50%
    15:00 +16°C° 0 mm 5 m/S 755 mmHg 50%
    16:00 +17°C° 0 mm 5 m/S 755 mmHg 49%
    17:00 +16°C° 0 mm 5 m/S 755 mmHg 52%
    18:00 +14°C° 0 mm 4 m/S 756 mmHg 54%
    19:00 +13°C° 0 mm 4 m/S 756 mmHg 57%
    20:00 +12°C° 0 mm 4 m/S 757 mmHg 54%
    21:00 +11°C° 0 mm 4 m/S 757 mmHg 51%
    22:00 +10°C° 0 mm 4 m/S 757 mmHg 48%
    23:00 +8°C° 0 mm 4 m/S 757 mmHg 52%

    29 April, Montag

    Zeit Temperatur Niederschläge Wind Luftdruck Luftfeuchtigkeit
    00:00 +8°C° 0 mm 3 m/S 758 mmHg 57%
    01:00 +7°C° 0 mm 3 m/S 758 mmHg 61%
    02:00 +5°C° 0 mm 3 m/S 758 mmHg 63%
    03:00 +4°C° 0 mm 3 m/S 758 mmHg 66%
    04:00 +4°C° 0 mm 3 m/S 758 mmHg 68%
    05:00 +5°C° 0 mm 3 m/S 758 mmHg 67%
    06:00 +7°C° 0 mm 3 m/S 758 mmHg 65%
    07:00 +7°C° 0 mm 4 m/S 758 mmHg 64%
    08:00 +10°C° 0 mm 4 m/S 757 mmHg 58%
    09:00 +12°C° 0 mm 4 m/S 757 mmHg 53%
    10:00 +14°C° 0 mm 4 m/S 757 mmHg 48%
    11:00 +15°C° 0 mm 5 m/S 756 mmHg 46%
    12:00 +16°C° 0 mm 5 m/S 756 mmHg 43%
    13:00 +19°C° 0 mm 5 m/S 755 mmHg 41%
    14:00 +19°C° 0 mm 5 m/S 755 mmHg 42%
    15:00 +19°C° 0 mm 5 m/S 755 mmHg 43%
    16:00 +19°C° 0 mm 5 m/S 754 mmHg 44%
    17:00 +16°C° 0 mm 5 m/S 754 mmHg 46%
    18:00 +14°C° 0 mm 4 m/S 755 mmHg 48%
    19:00 +12°C° 0 mm 4 m/S 755 mmHg 50%
    20:00 +11°C° 0 mm 4 m/S 755 mmHg 50%
    21:00 +9°C° 0 mm 3 m/S 756 mmHg 50%
    22:00 +8°C° 0 mm 3 m/S 756 mmHg 49%
    23:00 +7°C° 0 mm 2 m/S 756 mmHg 53%
    Mehr zeigen